STARLINK-34331, 64204

Orbit data source: Space-Track

STARLINK-34331, 64204 is a payload satellite owned by SpaceX/Seattle (US) in LEO that was launched on Sat, 31 May 2025 UTC via an FALCON 9 launch vehicle from the Air Force Western Test Range (AFWTR). Payload-class satellites include a variety of spacecraft equipped with specific instruments for various scientific and technological missions. These include communications satellites like Starlink; space stations such as the ISS; scientific satellites like the Hubble; Earth observation satellites from companies like Planet Labs, Umbra, and HawkEye 360; GPS; miniature CubeSats for education and research; and military/defense satellites.

Loading next visibility...
Identifier
64204, 2025-117B
Orbit
LEO
Country
Flag of USUS
Related business
Manufacturer
SpaceX/Seattle
Mission
Operational Commercial Communications
Bus & Motor
STARLINK V2MO, Unknown motor
Mass
575 kg wet, ~530 kg dry
Launch date (UTC)
2025-05-31 (1 year ago)
Launch vehicle
FALCON 9
Launch site
Air Force Western Test Range (AFWTR)
Object type
Payload
Rocket body
Debris
Shape & HBR
Box + 1 Pan, 17.7 m
Radar Cross Section
41.120 m², Large (>1 m²)

Expand to show TLE details & history
Last TLE update: 1 day ago

TLE from 1 day ago
0 STARLINK-34331
1 64204U 25117B   26235.33266482  .00024896  00000-0  74528-3 0  9992
2 64204  53.1577 343.1458 0001867  64.7368 295.3828 15.34409459 70075
Epoch: 2026-08-23T07:59Z
TLE epoch observation values (Epoch: 2026-08-23T07:59:02.240Z)
Latitude
-0.00001°
Longitude
-108.24378°
Altitude
463.029 km
Speed
7.637 km/s
True Right ascension
22h 52m 34s
True Declination
0° 00' 00"
Sunlit
Object was in full shadow at epoch
Visualization orbit readout
Latitude
Unknown
Longitude
Unknown
Altitude
Unknown
Speed
Unknown
Apparent Right ascension
Unknown
Apparent Declination
Unknown
Sunlit
N/A
Visualization observer readout
Local Sidereal Time
23:12:37
Azimuth
Unknown
Elevation
Unknown
Doppler factor
Unknown
Orbital elements
Apogee altitude
464.21 km
Perigee altitude
461.655 km
Semi-major axis
6,841.069 km
Eccentricity
0.00019
Inclination
53.1577°
RAAN
343.1458°
Arg. of periapsis
64.7368°
True anomaly
295.36347°
Mean anomaly
295.3828°
Eccentric anomaly
295.37313°
Mean motion
3.83581 °/min
Orbital period
93.85 mins
BSTAR
0.00074528
Loading maneuver chart data...
Computing Atmospheric mass density...
Loading historical data...
Loading historical data...
Loading historical data...
Loading historical data...
Loading historical data...
Loading historical data...
Loading historical data...

Documentation

Showing up to 5 results
|